www.pogodaiklimat.ru

ПОГОДА в Coober Pedy Airport

  • Прогноз погоды в Coober Pedy Airport
  • Монитор погоды в Coober Pedy Airport
  • Климат города

АРХИВ ПОГОДЫ в Coober Pedy Airport

Время (UTC), дата Ветер
(напр.,м/с)
 
Видим.   Явления Облачность Т
(С)
Тd
(С)
f
(%)
Тe
(С)
Тes
(С)
Комфортность P
(гПа)
Po
(гПа)
Тmin
(С)
Tmax
(С)
R
(мм)
S
(см)
09 14.01 Ю 10 н/о н/о +30.3 +6.9 23 +29 +29 жарко 1011.1 985.8
10 14.01 Ю 10 н/о н/о +28.2 +6.9 26 +27 +27 жарко 1011.6 986.3
11 14.01 Ю 8 н/о н/о +26.8 +8.3 31 +27 +27 жарко 1012.1 986.8
12 14.01 ЮВ 7 н/о н/о +25.5 +8.5 34 +26 +26 жарко 1013.0 987.7
13 14.01 ЮВ 5 н/о н/о +24.3 +9.5 39 +25 +25 комфорт 1013.8 988.4
14 14.01 ЮВ 4 н/о н/о +22.9 +9.7 43 +25 +25 комфорт 1014.0 988.6
15 14.01 ЮВ 5 н/о н/о +22.2 +10.4 47 +24 +24 комфорт 1013.7 988.3
16 14.01 ЮВ 5 н/о н/о +21.8 +10.3 48 +24 +24 комфорт 1013.3 987.9
17 14.01 ЮВ 5 н/о н/о +20.7 +10.2 51 +22 +22 комфорт 1013.2 987.8
18 14.01 ЮВ 5 н/о н/о +20.1 +10.8 55 +22 +22 комфорт 1013.0 987.7
19 14.01 ЮВ 4 н/о н/о +19.3 +10.3 56 +20 +20 1013.4 988.0
20 14.01 ЮВ 4 н/о н/о +18.3 +9.4 56 +18 +18 1014.1 988.7
21 14.01 ЮВ 4 н/о н/о +18.9 +9.7 55 +19 +19 1014.9 989.5
22 14.01 ЮВ 7 н/о н/о +20.6 +10.7 53 +22 +22 комфорт 1015.0 989.6
23 14.01 ЮВ 6 н/о н/о +22.9 +11.6 49 +25 +25 комфорт 1014.9 989.5
00 15.01 В 5 н/о н/о +25.2 +11.0 41 +26 +26 жарко 1015.1 989.7
01 15.01 В 6 н/о н/о +28.1 +10.8 34 +29 +29 жарко 1014.8 989.4
02 15.01 В 5 н/о н/о +29.5 +9.6 29 +29 +29 жарко 1014.0 988.6
03 15.01 В 4 н/о н/о +31.1 +9.3 26 +30 +30 жарко 1013.2 987.8
04 15.01 ЮВ 4 н/о н/о +32.5 +6.7 20 +31 +31 жарко 1012.3 987.0
05 15.01 СВ 4 н/о н/о +33.7 +6.9 19 +32 +32 жарко 1011.3 986.0
06 15.01 В 5 н/о н/о +34.9 +3.5 14 +32 +32 жарко 1010.5 985.2
07 15.01 В 5 н/о н/о +35.4 +2.8 13 +32 +32 жарко 1009.8 984.5
08 15.01 ЮВ 5 н/о н/о +35.4 +2.8 13 +32 +32 жарко 1009.2 983.9
09 15.01 В 6 н/о н/о +34.8 +2.3 13 +32 +32 жарко 1009.0 983.8
10 15.01 В 6 н/о н/о +33.2 +3.1 15 +30 +30 жарко 1009.3 984.0
11 15.01 В 4 н/о н/о +30.4 +4.2 19 +28 +28 жарко 1009.5 984.2
12 15.01 В 4 н/о н/о +28.1 +5.6 24 +27 +27 жарко 1009.9 984.6
13 15.01 ЮВ 4 н/о н/о +27.2 +6.0 26 +26 +26 жарко 1010.3 985.0
14 15.01 ЮВ 4 н/о н/о +26.2 +6.3 28 +26 +26 жарко 1010.4 985.1
15 15.01 В 6 н/о н/о +26.0 +5.0 26 +25 +25 комфорт 1010.3 985.0
16 15.01 В 6 н/о н/о +24.9 +5.2 28 +24 +24 комфорт 1009.9 984.6
17 15.01 В 6 н/о н/о +24.7 +5.5 29 +24 +24 комфорт 1009.8 984.5
18 15.01 В 5 н/о н/о +22.9 +5.8 33 +23 +23 комфорт 1010.0 984.7
19 15.01 ЮВ 5 н/о н/о +21.8 +6.1 36 +22 +22 комфорт 1010.0 984.7
20 15.01 В 4 н/о н/о +20.7 +6.6 40 +22 +22 комфорт 1010.2 984.9
21 15.01 В 3 н/о н/о +21.6 +6.7 38 +22 +22 комфорт 1010.8 985.5
22 15.01 В 4 н/о н/о +26.2 +6.3 28 +26 +26 жарко 1011.0 985.7
23 15.01 В 7 н/о н/о +29.2 +4.6 21 +28 +28 жарко 1010.9 985.6
00 16.01 В 7 н/о н/о +31.5 +4.3 18 +29 +29 жарко 1010.7 985.4
01 16.01 СВ 6 н/о н/о +33.9 +0.5 12 +31 +31 жарко 1009.9 984.6
02 16.01 СВ 7 н/о н/о +35.4 +0.5 11 +32 +32 жарко 1009.4 984.1
03 16.01 СВ 5 н/о н/о +36.9 -2.7 8 +33 +33 жарко 1008.5 983.3
04 16.01 В 6 н/о н/о +37.8 -3.9 7 +34 +34 очень
жарко
1007.5 982.3
05 16.01 СВ 7 н/о н/о +38.8 -3.2 7 +35 +35 очень
жарко
1006.8 981.6
06 16.01 СВ 4 н/о н/о +39.0 -5.1 6 +35 +35 очень
жарко
1006.1 980.9
07 16.01 В 5 н/о н/о +38.9 -7.5 5 +34 +34 очень
жарко
1005.7 980.5
08 16.01 В 4 н/о н/о +38.9 -7.5 5 +34 +34 очень
жарко
1005.4 980.2
09 16.01 В 5 н/о н/о +38.4 -7.8 5 +34 +34 очень
жарко
1005.7 980.5
10 16.01 В 5 н/о н/о +36.2 -7.0 6 +32 +32 жарко 1005.8 980.6
11 16.01 В 5 н/о н/о +32.8 -5.7 8 +29 +29 жарко 1006.3 981.1
12 16.01 В 4 н/о н/о +30.2 -6.1 9 +26 +26 жарко 1006.7 981.5
13 16.01 В 4 н/о н/о +28.3 -6.2 10 +25 +25 комфорт 1006.9 981.7
14 16.01 В 5 н/о н/о +28.8 -8.7 8 +25 +25 комфорт 1006.8 981.6
15 16.01 В 4 н/о н/о +26.8 -8.7 9 +24 +24 комфорт 1006.3 981.1
16 16.01 В 4 н/о н/о +26.3 -9.1 9 +23 +23 комфорт 1006.1 980.9

 

Местоположение метеостанции Coober Pedy Airport (Южная Австралия, Австралия): широта -29.03 долгота 134.71 высота над уровнем моря 226 м.

В архиве по умолчанию представлена погода в Coober Pedy Airport за последнюю неделю. Архивные данные за месяц целиком и за предыдущие месяцы, начиная с января 2011 года, Вы можете получить, выбрав интересующий диапазон дат из раскрывающегося списка и нажав кнопку "Ввод!".

Внимание! Время в таблицах - всемирное. Для получения местного времени необходимо прибавить поправку, которая в Coober Pedy Airport равна 9.5 ч.

Ветер - указаны скорость ветра в м/с - средняя за 10 мин, порывы в срок и между сроками (в фигурных скобках) и направление, откуда дует ветер: С - северный, СВ - северо-восточный, В - восточный, ЮВ - юго-восточный, Ю - южный, ЮЗ - юго-западный, З - западный, СЗ - северо-западный.
Видимость - горизонтальная дальность видимости в метрах или километрах. При видимости от 1 до 10 км при отсутствии осадков обычно наблюдается дымка, при ухудшении видимости до 1 км и менее - туман. В сухую погоду видимость может ухудшаться дымом, пылью или мглою.
Явления - указаны атмосферные явления, наблюдавшиеся в срок или в последний час перед сроком; фигурными скобками обозначены явления, наблюдавшиеся между сроками (за 1-3 часа до срока); квадратными скобками обозначены град или гололедные отложения с указанием их диаметра в мм.
Облачность - указаны через наклонную черту общая и нижняя облачность в баллах и высота нижней границы облаков в метрах; квадратными скобками обозначены формы облаков: Ci - перистые, Cs - перисто-слоистые, Cc - перисто-кучевые, Ac - высококучевые, As - высокослоистые, Sc - слоисто-кучевые, Ns - слоисто-дождевые, Cu - кучевые, Cb - кучево-дождевые. Подробнее классификацию облаков см. в Атласе облаков (PDF).
T - Температура воздуха - температура, измеренная на высоте 2 м над землей.
Td - Температура точки росы - температура, при понижении до которой содержащийся в воздухе водяной пар достигнет насыщения.
f - Относительная влажность воздуха - влажноcть воздуха, измеренная на высоте 2 м над землей.
Te - Эффективная температура - температура, которую ощущает одетый по сезону человек в тени. Характеристика душности погоды. При расчете учитывается влияние влажности воздуха и скорости ветра на теплоощущения человека.
Tes - Эффективная температура на солнце - температура, которую ощущает человек, с поправкой на солнечный нагрев. Характеристика знойности погоды. Зависит от высоты солнца над горизонтом, облачности и скорости ветра. Ночью, в пасмурную погоду, а также при ветре 12 м/с и более поправка равна нулю.
P - Атмосферное давление - приведенное к уровню моря атмосферное давление.
Po - Атмосферное давление - измеренное на уровне метеостанции атмосферное давление.
Tmin - Минимальная температура - минимум температуры воздуха на высоте 2 м над землей.
Tmax - Максимальная температура - максимум температуры воздуха на высоте 2 м над землей.
R - Количество осадков - Количество выпавших осадков, мм. При наведении курсора мыши на число - период времени, за который выпало указанное количество осадков.
S - Снежный покров - Высота снежного покрова, см. При наведении курсора мыши на число - состояние снежного покрова и степень покрытия местности в баллах.